Location: Cluj-Napoca
(46.7712°N, 23.6236°E)
Time: 12:32:06
(UTC+03:00)

ISS - Pass Details

Date: 14 May 2021
Orbit: 417 x 422 km, 51.6° (Epoch: 15 May)

Event Time Altitude Azimuth Distance (km) Brightness Sun altitude
Exits shadow 02:18:38 17° 305° (NW) 1,146 -1.4 -23.4°
Maximum altitude 02:20:45 34° 3° (N) 711 -2.1 -23.3°
Drops below altitude 10° 02:23:53 10° 71° (ENE) 1,505 -0.5 -23.1°
Sets 02:26:06 0° 81° (E) 2,370 0.4 -23.0°
